Weather Roundup
Issued by NWS

Home | Current Version | Previous Version | Text Only | Print | Product List | Glossary On
Versions: 1 2 3 4 5 6 7 8 9 10 11 12 13 14 15 16 17 18 19 20 21 22 23 24 25 26 27 28 29 30 31 32 33 34 35 36 37 38 39 40 41 42 43 44 45 46 47 48 49 50
000
NZUS93 KARX 221359
HRRWXR

CURRENT HOURLY OBSERVATIONS ACROSS
MUCH OF THE UPPER MISSISSIPPI VALLEY
NATIONAL WEATHER SERVICE LA CROSSE WI
900 AM CDT SUN APR 22 2018


...SOUTHEAST MINNESOTA...


CITY           SKY/WX    TMP DP  RH WIND       PRES   REMARKS
ROCHESTER      FAIR      45  36  70 SE5       30.37R
ROCHESTER/MAYO FAIR      47  32  56 CALM      30.37S
WINONA         FAIR      41  36  81 CALM      30.37R
AUSTIN         FAIR      41  34  75 E5        30.35S
ALBERT LEA     FAIR      39  30  70 NE3       30.35R
DODGE CENTER   FAIR      46  36  66 E5        30.36S
PRESTON        FAIR      41  33  72 CALM      30.37R
OWATONNA       FAIR      46  37  71 E3        30.36R
FARIBAULT      NOT AVBL
$$

...ELSEWHERE IN MINNESOTA...


CITY           SKY/WX    TMP DP  RH WIND       PRES   REMARKS
MINNEAPOLIS    FAIR      48  35  60 E3        30.38S
INTNL FALLS    FAIR      48  31  51 SW6       30.30R
DULUTH         FAIR      49  25  39 S6        30.36S
RED WING       FAIR      45  32  61 SW3       30.37S
REDWOOD FALLS  SUNNY     41  36  82 E6        30.34S
MANKATO        FAIR      45  36  70 CALM      30.36R
WORTHINGTON    SUNNY     38  34  85 NE3       30.33R
FAIRMONT       CLOUDY    37  32  82 NE3       30.34S
$$

...SOUTHWEST WISCONSIN...


CITY           SKY/WX    TMP DP  RH WIND       PRES   REMARKS
LA CROSSE      FAIR      45  35  68 N3        30.39R
PRAIRIE DU CHI FAIR      46  34  64 CALM      30.37S
BOSCOBEL       FAIR      48  34  58 NE6       30.38S
LONE ROCK      NOT AVBL
PLATTEVILLE    FAIR      49  26  41 E10       30.36F
FORT MC COY    FAIR      41  33  72 CALM      30.39S
MAUSTON-NEW LI FAIR      44  34  68 SE3       30.38S
VIROQUA        FAIR      46  35  63 E6        30.37R
WIS DELLS      FAIR      43  32  66 E5        30.39S
$$

...ELSEWHERE IN WISCONSIN...


CITY           SKY/WX    TMP DP  RH WIND       PRES   REMARKS
MILWAUKEE      PTSUNNY   47  21  35 E7        30.41R
MADISON        PTSUNNY   49  21  33 E8        30.39S
GREEN BAY      FAIR      46  34  62 CALM      30.41S
EAU CLAIRE     NOT AVBL
BLACK RVR FLS  FAIR      43  30  61 NE3       30.38F
MEDFORD        FAIR      42  30  62 E3        30.38R
WAUSAU         FAIR      44  30  57 CALM      30.38R
WIS RAPIDS     FAIR      48  29  47 CALM      30.40S
MARSHFIELD     FAIR      47  30  51 E3        30.38R
RICE LAKE      FAIR      36  28  73 CALM      30.40S
$$

...NORTHEAST IOWA...


CITY           SKY/WX    TMP DP  RH WIND       PRES   REMARKS
WATERLOO       FAIR      50  29  44 E12       30.32S
DUBUQUE        FAIR      50  24  36 E6        30.35R
DECORAH        PTSUNNY   46  32  57 E8        30.34S
MASON CITY     PTSUNNY   41  37  86 NE5       30.35R
CHARLES CITY   FAIR      48  34  57 E7        30.34S
OELWEIN        FAIR      48  30  49 E9        30.33F
$$

...ELSEWHERE IN IOWA...


CITY           SKY/WX    TMP DP  RH WIND       PRES   REMARKS
DES MOINES     CLOUDY    50  29  44 E13       30.26S
IOWA CITY      FAIR      52  24  33 E14       30.30F
FORT DODGE     SUNNY     49  36  61 E14       30.29F
MARSHALLTOWN   MOSUNNY   48  32  53 E15       30.28F
CEDAR RAPIDS   FAIR      52  25  35 E17       30.28F
$$

...NORTHERN ILLINOIS...


CITY           SKY/WX    TMP DP  RH WIND       PRES   REMARKS
CHICAGO-OHARE  PTSUNNY   49  28  44 E7        30.36S
CHICAGO-MIDWAY PTSUNNY   51  26  37 NE9       30.37S
MOLINE         FAIR      52  27  38 E13       30.30F
ROCKFORD       CLOUDY    48  21  34 E10       30.38F
PEORIA         FAIR      50  30  46 E13       30.28S
$$

NOTE: "FAIR" INDICATES FEW OR NO CLOUDS BELOW 12,000 FEET WITH NO
SIGNIFICANT WEATHER AND/OR OBSTRUCTIONS TO VISIBILITY. WIND
SPEEDS ARE IN MILES-PER-HOUR.




USA.gov is the U.S. government's official web portal to all federal, state and local government web resources and services.